W7KKE-3 Weather Reports


time (UTC)temp
C
wind
direction
speed
KPH
gust
KPH
rain 1hr
cm
rain 24hr
cm
rain mn
cm
humidity
%
barometer
mb
20220124110054 6 161 9.7 12.9 0.00 0.00 0.00 66 1023.5
20220124105555 6 144 4.8 16.1 0.00 0.00 0.00 66 1023.4
20220124105054 6 156 6.4 16.1 0.00 0.00 0.00 66 1023.5
20220124104554 6 152 8.0 16.1 0.00 0.00 0.00 66 1023.3
20220124104054 6 142 6.4 16.1 0.00 0.00 0.00 66 1023.3
20220124103554 6 163 8.0 16.1 0.00 0.00 0.00 66 1023.3
20220124103054 6 140 3.2 16.1 0.00 0.00 0.00 66 1023.4
20220124102556 6 140 4.8 16.1 0.00 0.00 0.00 66 1023.4
20220124102054 6 144 6.4 16.1 0.00 0.00 0.00 66 1023.4
20220124101554 6 138 4.8 11.3 0.00 0.00 0.00 66 1023.4
20220124101055 6 175 1.6 12.9 0.00 0.00 0.00 66 1023.4
20220124100554 6 135 1.6 12.9 0.00 0.00 0.00 66 1023.5
20220124100054 6 165 3.2 12.9 0.00 0.00 0.00 66 1023.4
20220124095557 6 158 4.8 14.5 0.00 0.00 0.00 66 1023.4
20220124095054 6 166 6.4 14.5 0.00 0.00 0.00 66 1023.3
20220124094554 6 172 4.8 14.5 0.00 0.00 0.00 66 1023.3
20220124094054 6 140 4.8 14.5 0.00 0.00 0.00 68 1023.3
20220124093554 6 176 6.4 12.9 0.00 0.00 0.00 66 1023.3
20220124093054 6 144 4.8 12.9 0.00 0.00 0.00 66 1023.4
20220124092555 6 149 6.4 12.9 0.00 0.00 0.00 66 1023.4
20220124092054 6 151 1.6 11.3 0.00 0.00 0.00 66 1023.5
20220124091554 6 147 0.0 9.7 0.00 0.00 0.00 66 1023.6
20220124091054 6 144 0.0 9.7 0.00 0.00 0.00 66 1023.7
20220124090554 6 175 1.6 14.5 0.00 0.00 0.00 66 1023.6
20220124090054 6 140 6.4 14.5 0.00 0.00 0.00 66 1023.6
20220124085555 6 162 6.4 14.5 0.00 0.00 0.00 66 1023.7
20220124085054 6 142 8.0 12.9 0.00 0.00 0.00 66 1023.7
20220124084554 6 151 3.2 16.1 0.00 0.00 0.00 66 1023.7
20220124084054 6 149 6.4 16.1 0.00 0.00 0.00 66 1023.6
20220124083554 6 168 8.0 16.1 0.00 0.00 0.00 66 1023.6
20220124083054 6 156 8.0 11.3 0.00 0.00 0.00 66 1023.7
20220124082555 6 137 4.8 11.3 0.00 0.00 0.00 66 1023.6
20220124082054 6 151 4.8 17.7 0.00 0.00 0.00 66 1023.5
20220124081554 6 155 6.4 17.7 0.00 0.00 0.00 66 1023.6
20220124081054 6 163 3.2 17.7 0.00 0.00 0.00 66 1023.5
20220124080554 6 137 6.4 16.1 0.00 0.00 0.00 66 1023.4
20220124080054 6 134 6.4 12.9 0.00 0.00 0.00 66 1023.4
20220124075555 6 158 6.4 12.9 0.00 0.00 0.00 66 1023.5
20220124075054 6 140 6.4 12.9 0.00 0.00 0.00 66 1023.5
20220124074554 6 138 8.0 12.9 0.00 0.00 0.00 66 1023.6
20220124074054 6 148 8.0 16.1 0.00 0.00 0.00 66 1023.6
20220124073554 6 158 4.8 16.1 0.00 0.00 0.00 66 1023.7
20220124073054 6 170 6.4 16.1 0.00 0.00 0.00 66 1023.7
20220124072556 6 158 8.0 14.5 0.00 0.00 0.00 67 1023.7
20220124072054 6 162 6.4 14.5 0.00 0.00 0.00 67 1023.7
20220124071554 6 156 9.7 16.1 0.00 0.00 0.00 66 1023.8
20220124071054 6 165 8.0 16.1 0.00 0.00 0.00 66 1023.8
20220124070554 7 124 4.8 16.1 0.00 0.00 0.00 66 1023.9
20220124070054 7 133 6.4 16.1 0.00 0.00 0.00 66 1023.9
20220124065555 7 145 3.2 16.1 0.00 0.00 0.00 66 1023.9
20220124065054 7 149 9.7 14.5 0.00 0.00 0.00 66 1024.0
20220124064554 7 152 8.0 12.9 0.00 0.00 0.00 66 1023.9
20220124064054 7 151 4.8 12.9 0.00 0.00 0.00 66 1023.9
20220124063554 7 134 6.4 14.5 0.00 0.00 0.00 66 1023.9
20220124063054 7 165 1.6 14.5 0.00 0.00 0.00 67 1024.0
20220124062555 7 149 3.2 14.5 0.00 0.00 0.00 66 1024.1
20220124062054 7 144 3.2 9.7 0.00 0.00 0.00 66 1024.0
20220124061554 7 152 6.4 14.5 0.00 0.00 0.00 66 1024.0
20220124061054 7 155 1.6 14.5 0.00 0.00 0.00 66 1024.0
20220124060554 7 138 0.0 14.5 0.00 0.00 0.00 66 1024.0
20220124060054 7 121 3.2 17.7 0.00 0.00 0.00 66 1023.9
20220124055556 7 140 4.8 17.7 0.00 0.00 0.00 66 1023.8
20220124055054 7 137 3.2 17.7 0.00 0.00 0.00 66 1023.8
20220124054555 7 158 4.8 14.5 0.00 0.00 0.00 65 1023.9
20220124053554 7 135 1.6 12.9 0.00 0.00 0.00 65 1023.8
20220124053054 7 88 6.4 12.9 0.00 0.00 0.00 64 1023.8
20220124052555 7 155 8.0 12.9 0.00 0.00 0.00 62 1023.8
20220124052054 7 169 8.0 12.9 0.00 0.00 0.00 66 1023.8
20220124051554 7 130 4.8 11.3 0.00 0.00 0.00 66 1023.8
20220124051054 7 158 3.2 11.3 0.00 0.00 0.00 66 1023.8
20220124050554 7 158 3.2 11.3 0.00 0.00 0.00 66 1023.8
20220124050054 7 163 4.8 12.9 0.00 0.00 0.00 66 1023.9
20220124045555 7 147 4.8 12.9 0.00 0.00 0.00 66 1023.9
20220124045054 7 151 1.6 12.9 0.00 0.00 0.00 66 1023.9
20220124044554 7 133 3.2 12.9 0.00 0.00 0.00 66 1023.9
20220124044054 7 147 6.4 12.9 0.00 0.00 0.00 66 1023.9
20220124043554 7 151 6.4 12.9 0.00 0.00 0.00 66 1024.0
20220124043054 8 169 8.0 12.9 0.00 0.00 0.00 66 1023.9
20220124042554 8 155 8.0 12.9 0.00 0.00 0.00 64 1023.9
20220124042054 8 151 9.7 12.9 0.00 0.00 0.00 65 1024.0
20220124041554 8 161 8.0 12.9 0.00 0.00 0.00 62 1023.9
20220124041056 8 147 6.4 12.9 0.00 0.00 0.00 62 1023.9
20220124040555 8 147 3.2 9.7 0.00 0.00 0.00 62 1023.9
20220124040054 8 133 4.8 11.3 0.00 0.00 0.00 63 1023.8
20220124035555 8 162 3.2 11.3 0.00 0.00 0.00 62 1023.9
20220124035054 8 187 1.6 11.3 0.00 0.00 0.00 62 1023.9
20220124034554 8 156 4.8 14.5 0.00 0.00 0.00 62 1023.9
20220124034055 8 162 3.2 14.5 0.00 0.00 0.00 66 1023.9
20220124033554 8 152 3.2 14.5 0.00 0.00 0.00 64 1023.9
20220124033054 8 147 6.4 11.3 0.00 0.00 0.00 66 1023.8
20220124032554 8 142 4.8 11.3 0.00 0.00 0.00 66 1023.9
20220124032055 8 123 1.6 11.3 0.00 0.00 0.00 66 1024.0
20220124031555 8 151 1.6 11.3 0.00 0.00 0.00 66 1024.0
20220124031054 8 148 8.0 11.3 0.00 0.00 0.00 66 1024.0
20220124030554 8 149 3.2 14.5 0.00 0.00 0.00 66 1024.0
20220124030053 8 145 4.8 14.5 0.00 0.00 0.00 66 1024.0
20220124025554 8 163 6.4 14.5 0.00 0.00 0.00 66 1024.0
20220124025053 8 168 4.8 12.9 0.00 0.00 0.00 66 1024.0
20220124024553 9 135 8.0 12.9 0.00 0.00 0.00 66 1023.9
20220124024054 9 133 4.8 12.9 0.00 0.00 0.00 66 1023.8
20220124023556 8 163 3.2 12.9 0.00 0.00 0.00 66 1023.8
20220124022555 9 162 0.0 12.9 0.00 0.00 0.00 67 1023.8
20220124022053 9 123 3.2 9.7 0.00 0.00 0.00 66 1023.7
20220124021553 9 152 3.2 9.7 0.00 0.00 0.00 66 1023.6
20220124021054 9 151 1.6 14.5 0.00 0.00 0.00 67 1023.5
20220124020553 9 140 4.8 14.5 0.00 0.00 0.00 66 1023.4
20220124020053 9 156 1.6 14.5 0.00 0.00 0.00 67 1023.3
20220124015554 9 177 3.2 14.5 0.00 0.00 0.00 67 1023.3
20220124015053 9 156 1.6 9.7 0.00 0.00 0.00 67 1023.3
20220124014555 9 0 1.6 9.7 0.00 0.00 0.00 68 1023.3
20220124014056 9 183 0.0 9.7 0.00 0.00 0.00 70 1023.2
20220124013553 9 142 0.0 6.4 0.00 0.00 0.00 70 1023.2
20220124013053 9 95 0.0 6.4 0.00 0.00 0.00 70 1023.2
20220124012554 9 145 0.0 6.4 0.00 0.00 0.00 70 1023.2
20220124012053 9 0 0.0 0.0 0.00 0.00 0.00 70 1023.2
20220124011553 10 0 0.0 0.0 0.00 0.00 0.00 70 1023.2
20220124011054 10 0 0.0 0.0 0.00 0.00 0.00 70 1023.2
20220124010553 10 0 0.0 0.0 0.00 0.00 0.00 70 1023.3
20220124010056 10 0 0.0 0.0 0.00 0.00 0.00 71 1023.2
20220124005557 10 0 0.0 0.0 0.00 0.00 0.00 70 1023.3
20220124005053 10 0 0.0 0.0 0.00 0.00 0.00 70 1023.3
20220124004553 10 0 0.0 0.0 0.00 0.00 0.00 70 1023.3
20220124004054 10 0 0.0 0.0 0.00 0.00 0.00 70 1023.3
20220124003553 10 0 0.0 0.0 0.00 0.00 0.00 70 1023.3
20220124003053 10 0 0.0 0.0 0.00 0.00 0.00 68 1023.2
20220124002554 10 0 0.0 0.0 0.00 0.00 0.00 68 1023.1
20220124002053 10 0 0.0 0.0 0.00 0.00 0.00 68 1023.1
20220124001553 10 0 0.0 0.0 0.00 0.00 0.00 69 1023.1
20220124001054 10 0 0.0 0.0 0.00 0.00 0.00 66 1023.1
20220124000553 11 0 0.0 0.0 0.00 0.00 0.00 66 1023.2
20220124000053 11 0 0.0 0.0 0.00 0.00 0.00 66 1023.1
20220123235554 11 0 0.0 0.0 0.00 0.00 0.00 66 1023.1
20220123235053 11 0 0.0 4.8 0.00 0.00 0.00 66 1023.0
20220123234553 11 0 0.0 4.8 0.00 0.00 0.00 66 1022.9
20220123234054 11 315 0.0 4.8 0.00 0.00 0.00 68 1022.9
20220123233553 11 16 0.0 11.3 0.00 0.00 0.00 67 1022.9
20220123233053 10 352 0.0 11.3 0.00 0.00 0.00 66 1022.9
20220123232554 10 1 1.6 11.3 0.00 0.00 0.00 67 1023.0
20220123232054 10 5 6.4 11.3 0.00 0.00 0.00 66 1023.0
20220123231554 10 2 6.4 11.3 0.00 0.00 0.00 67 1023.1
20220123231054 11 338 4.8 9.7 0.00 0.00 0.00 66 1023.0
20220123230553 11 327 1.6 8.0 0.00 0.00 0.00 66 1023.0
20220123230053 11 327 0.0 6.4 0.00 0.00 0.00 69 1023.0
20220123225557 11 309 3.2 11.3 0.00 0.00 0.00 67 1023.0
20220123224553 11 336 4.8 11.3 0.00 0.00 0.00 68 1022.9
20220123224054 11 9 3.2 16.1 0.00 0.00 0.00 70 1022.9
20220123223553 11 354 9.7 16.1 0.00 0.00 0.00 69 1022.9
20220123223053 11 352 8.0 16.1 0.00 0.00 0.00 70 1023.0
20220123222554 11 2 11.3 16.1 0.00 0.00 0.00 70 1023.1
20220123222053 11 354 11.3 16.1 0.00 0.00 0.00 70 1023.1
20220123221553 11 348 12.9 14.5 0.00 0.00 0.00 70 1023.1
20220123221054 11 357 9.7 14.5 0.00 0.00 0.00 68 1023.1
20220123220553 11 12 11.3 14.5 0.00 0.00 0.00 70 1023.0
20220123220053 11 352 9.7 14.5 0.00 0.00 0.00 70 1023.0
20220123215554 11 357 9.7 16.1 0.00 0.00 0.00 70 1022.9
20220123215053 11 12 9.7 16.1 0.00 0.00 0.00 69 1022.9
20220123214553 11 0 11.3 16.1 0.00 0.00 0.00 68 1022.9
20220123214054 11 4 12.9 14.5 0.00 0.00 0.00 66 1022.9
20220123213553 11 12 6.4 11.3 0.00 0.00 0.00 66 1022.9
20220123213053 11 344 8.0 9.7 0.00 0.00 0.00 66 1022.9
20220123212554 11 347 4.8 8.0 0.00 0.00 0.00 68 1022.9
20220123212053 11 4 0.0 8.0 0.00 0.00 0.00 66 1023.1
20220123211553 11 345 0.0 8.0 0.00 0.00 0.00 66 1023.1
20220123211054 11 315 1.6 8.0 0.00 0.00 0.00 66 1023.1
20220123210553 11 306 1.6 6.4 0.00 0.00 0.00 66 1023.1
20220123210053 11 313 0.0 11.3 0.00 0.00 0.00 66 1023.2
20220123205554 11 344 3.2 11.3 0.00 0.00 0.00 65 1023.3
20220123205053 12 333 1.6 11.3 0.00 0.00 0.00 64 1023.4
20220123204554 12 336 6.4 11.3 0.00 0.00 0.00 62 1023.5
20220123204054 12 345 6.4 11.3 0.00 0.00 0.00 62 1023.5
20220123203553 12 15 8.0 11.3 0.00 0.00 0.00 59 1023.6
20220123203053 13 337 8.0 8.0 0.00 0.00 0.00 58 1023.5
20220123202554 13 0 3.2 8.0 0.00 0.00 0.00 62 1023.5
20220123202055 13 0 0.0 8.0 0.00 0.00 0.00 62 1023.5
20220123201553 12 308 0.0 8.0 0.00 0.00 0.00 62 1023.5
20220123201054 12 340 0.0 8.0 0.00 0.00 0.00 63 1023.6
20220123200553 12 357 3.2 9.7 0.00 0.00 0.00 62 1023.7
20220123200053 12 357 4.8 9.7 0.00 0.00 0.00 63 1023.7
20220123195554 12 16 4.8 9.7 0.00 0.00 0.00 66 1023.7
20220123195053 11 357 1.6 9.7 0.00 0.00 0.00 62 1023.8
20220123194553 11 21 0.0 9.7 0.00 0.00 0.00 62 1023.7
20220123194054 10 0 0.0 8.0 0.00 0.00 0.00 62 1023.8
20220123193553 10 301 0.0 8.0 0.00 0.00 0.00 62 1023.8
20220123193053 10 282 0.0 8.0 0.00 0.00 0.00 66 1023.8
20220123192555 9 275 0.0 8.0 0.00 0.00 0.00 66 1023.7
20220123192053 9 219 0.0 6.4 0.00 0.00 0.00 66 1023.8
20220123191553 9 107 0.0 12.9 0.00 0.00 0.00 69 1023.8
20220123191054 8 107 0.0 12.9 0.00 0.00 0.00 69 1023.8
20220123190553 8 176 0.0 12.9 0.00 0.00 0.00 70 1023.9
20220123190053 8 198 0.0 9.7 0.00 0.00 0.00 71 1024.0
20220123185554 8 204 0.0 8.0 0.00 0.00 0.00 70 1024.1
20220123185053 7 176 0.0 6.4 0.00 0.00 0.00 70 1024.2
20220123184553 7 0 0.0 0.0 0.00 0.00 0.00 70 1024.3
20220123184053 7 0 0.0 0.0 0.00 0.00 0.00 73 1024.3
20220123183553 7 0 0.0 0.0 0.00 0.00 0.00 73 1024.2
20220123183053 7 0 0.0 11.3 0.00 0.00 0.00 74 1024.3
20220123182554 7 214 0.0 11.3 0.00 0.00 0.00 74 1024.2
20220123182053 6 177 3.2 11.3 0.00 0.00 0.00 74 1024.2
20220123181553 6 191 0.0 8.0 0.00 0.00 0.00 74 1024.3
20220123181054 6 0 0.0 8.0 0.00 0.00 0.00 74 1024.3
20220123180553 6 204 0.0 8.0 0.00 0.00 0.00 74 1024.3
20220123180053 6 204 0.0 6.4 0.00 0.00 0.00 74 1024.3
20220123175554 6 182 0.0 6.4 0.00 0.00 0.00 74 1024.3
20220123175053 6 95 0.0 6.4 0.00 0.00 0.00 74 1024.3
20220123174553 6 211 0.0 6.4 0.00 0.00 0.00 74 1024.3
20220123174053 5 161 0.0 6.4 0.00 0.00 0.00 74 1024.3
20220123173553 5 210 1.6 6.4 0.00 0.00 0.00 74 1024.3
20220123173053 5 193 0.0 6.4 0.00 0.00 0.00 74 1024.4
20220123172554 5 217 0.0 8.0 0.00 0.00 0.00 73 1024.3
20220123172053 5 0 0.0 8.0 0.00 0.00 0.00 72 1024.4
20220123171553 5 193 0.0 8.0 0.00 0.00 0.00 72 1024.4
20220123171053 5 148 0.0 6.4 0.00 0.00 0.00 70 1024.3
20220123170553 5 154 0.0 4.8 0.00 0.00 0.00 70 1024.4
20220123170053 5 240 0.0 8.0 0.00 0.00 0.00 70 1024.4
20220123165554 5 240 0.0 8.0 0.00 0.00 0.00 70 1024.4
20220123165053 5 260 0.0 8.0 0.00 0.00 0.00 70 1024.3
20220123164553 5 282 0.0 6.4 0.00 0.00 0.00 70 1024.3
20220123164053 5 126 0.0 6.4 0.00 0.00 0.00 70 1024.3
20220123163553 5 135 0.0 20.9 0.00 0.00 0.00 70 1024.3
20220123163053 5 107 8.0 20.9 0.00 0.00 0.00 70 1024.4
20220123162554 5 201 0.0 20.9 0.00 0.00 0.00 70 1024.4
20220123162054 5 106 6.4 11.3 0.00 0.00 0.00 70 1024.4
20220123161553 5 172 0.0 11.3 0.00 0.00 0.00 70 1024.4
20220123161053 5 50 0.0 11.3 0.00 0.00 0.00 70 1024.4
20220123160553 5 130 0.0 9.7 0.00 0.00 0.00 70 1024.5
20220123160053 5 172 0.0 9.7 0.00 0.00 0.00 70 1024.5
20220123155554 5 247 0.0 8.0 0.00 0.00 0.00 70 1024.5
20220123155053 5 106 1.6 9.7 0.00 0.00 0.00 70 1024.5
20220123154554 5 0 0.0 9.7 0.00 0.00 0.00 70 1024.5
20220123154055 5 145 0.0 9.7 0.00 0.00 0.00 72 1024.5
20220123153553 5 133 3.2 11.3 0.00 0.00 0.00 70 1024.5
20220123153053 5 151 0.0 11.3 0.00 0.00 0.00 73 1024.5
20220123152554 5 130 0.0 11.3 0.00 0.00 0.00 70 1024.5
20220123152054 5 201 0.0 8.0 0.00 0.00 0.00 70 1024.5
20220123151554 5 116 3.2 8.0 0.00 0.00 0.00 70 1024.6
20220123151053 5 0 0.0 8.0 0.00 0.00 0.00 70 1024.6
20220123150553 5 154 0.0 8.0 0.00 0.00 0.00 70 1024.6
20220123150053 5 214 0.0 11.3 0.00 0.00 0.00 70 1024.5
20220123145554 5 169 0.0 11.3 0.00 0.00 0.00 70 1024.6
20220123145053 5 156 0.0 11.3 0.00 0.00 0.00 70 1024.5
20220123144553 5 152 3.2 11.3 0.00 0.00 0.00 70 1024.5
20220123144053 5 156 3.2 14.5 0.00 0.00 0.00 70 1024.5
20220123143553 5 120 0.0 14.5 0.00 0.00 0.00 70 1024.5
20220123143053 5 191 0.0 14.5 0.00 0.00 0.00 70 1024.4
20220123142554 5 142 4.8 8.0 0.00 0.00 0.00 70 1024.4
20220123142053 5 70 3.2 8.0 0.00 0.00 0.00 70 1024.4
20220123141553 5 128 0.0 8.0 0.00 0.00 0.00 70 1024.4
20220123141053 5 110 0.0 12.9 0.00 0.00 0.00 70 1024.4
20220123140553 5 152 1.6 12.9 0.00 0.00 0.00 70 1024.4
20220123140053 5 152 0.0 12.9 0.00 0.00 0.00 70 1024.4
20220123135554 5 130 4.8 8.0 0.00 0.00 0.00 70 1024.3
20220123135053 5 123 0.0 8.0 0.00 0.00 0.00 70 1024.4
20220123134553 5 131 1.6 11.3 0.00 0.00 0.00 70 1024.4
20220123134053 5 138 0.0 11.3 0.00 0.00 0.00 70 1024.4
20220123133553 5 158 3.2 11.3 0.00 0.00 0.00 70 1024.4
20220123133053 5 180 0.0 9.7 0.00 0.00 0.00 70 1024.4
20220123132554 5 149 0.0 24.1 0.00 0.00 0.00 70 1024.4
20220123132053 5 142 4.8 24.1 0.00 0.00 0.00 70 1024.4
20220123131553 5 186 0.0 24.1 0.00 0.00 0.00 70 1024.4
20220123131053 5 148 0.0 12.9 0.00 0.00 0.00 70 1024.4
20220123130553 5 119 0.0 12.9 0.00 0.00 0.00 70 1024.4
20220123130053 5 156 0.0 11.3 0.00 0.03 0.00 70 1024.4
20220123125554 5 203 4.8 11.3 0.00 0.03 0.00 70 1024.3
20220123125053 5 156 0.0 11.3 0.00 0.03 0.00 70 1024.4
20220123124553 5 128 0.0 8.0 0.00 0.03 0.00 70 1024.4
20220123124053 6 162 1.6 8.0 0.00 0.03 0.00 70 1024.4
20220123123553 6 196 1.6 17.7 0.00 0.03 0.00 70 1024.4
20220123123053 6 190 1.6 17.7 0.00 0.03 0.00 70 1024.4
20220123122554 6 135 1.6 17.7 0.00 0.03 0.00 70 1024.4
20220123122053 6 130 0.0 14.5 0.00 0.03 0.00 70 1024.4
20220123121553 6 148 1.6 14.5 0.00 0.03 0.00 70 1024.4
20220123121053 6 134 0.0 14.5 0.00 0.03 0.00 70 1024.5
20220123120553 6 158 0.0 14.5 0.00 0.03 0.00 70 1024.4
20220123120053 6 113 0.0 14.5 0.00 0.03 0.00 70 1024.5
20220123115554 6 170 3.2 14.5 0.00 0.03 0.00 70 1024.6
20220123115053 6 127 0.0 12.9 0.00 0.03 0.00 70 1024.6
20220123114553 5 141 0.0 12.9 0.00 0.03 0.00 70 1024.6
20220123114053 5 154 3.2 14.5 0.00 0.03 0.00 72 1024.6
20220123113553 5 124 1.6 14.5 0.00 0.03 0.00 73 1024.7
20220123113053 5 156 6.4 14.5 0.00 0.03 0.00 74 1024.7
20220123112554 5 172 3.2 12.9 0.00 0.03 0.00 74 1024.7
20220123112053 5 137 0.0 12.9 0.00 0.03 0.00 74 1024.8
20220123111553 5 156 0.0 11.3 0.00 0.03 0.00 74 1024.8
20220123111053 5 135 0.0 11.3 0.00 0.03 0.00 74 1024.9
20220123110553 5 135 1.6 11.3 0.00 0.03 0.00 74 1024.9